SCOUT A DEB, 3122

Orbit data source: Space-Track

SCOUT A DEB, 3122 is space debris in LEO originally from a launch on Mon, 25 Sep 1967 UTC launched from the Air Force Western Test Range (AFWTR). Debris objects in space refer to the collection of defunct objects orbiting the Earth. Examples of debris include non-operational satellites, rocket bodies, and fragments generated from explosions, collisions, or faulty payload assembly.

Loading next visibility...
Identifier
3122, 1967-092D
Orbit
LEO
Country
Flag of USUS
Related business
Manufacturer
Unknown
Mission
Spacecraft
Bus & Motor
Unknown
Mass
Unknown
Launch date (UTC)
1967-09-25 (58 years ago)
Launch vehicle
Unknown
Launch site
Air Force Western Test Range (AFWTR)
Object type
Payload
Rocket body
Debris
Shape & HBR
Unknown shape, 0.1 m
Radar Cross Section
Small (<0.1 m²)

Expand to show TLE details & history
Last TLE update: 2 days ago

TLE from 2 days ago
0 SCOUT A DEB
1 03122U 67092D   26032.13316495  .00000338  00000-0  68158-3 0  9992
2 03122  89.0606 100.6189 0184928 242.1522 144.0996 13.25944392564992
Epoch: 2026-02-01T03:11Z
TLE epoch observation values (Epoch: 2026-02-01T03:11:45.451Z)
Latitude
27.50278°
Longitude
-78.18098°
Altitude
1,279.335 km
Speed
7.164 km/s
True Right ascension
06h 44m 25s
True Declination
27° 22' 18"
Sunlit
Object was in full shadow at epoch
Visualization orbit readout
Latitude
Unknown
Longitude
Unknown
Altitude
Unknown
Speed
Unknown
Apparent Right ascension
Unknown
Apparent Declination
Unknown
Sunlit
N/A
Visualization observer readout
Local Sidereal Time
02:25:46
Azimuth
Unknown
Elevation
Unknown
Doppler factor
Unknown
Orbital elements
Apogee altitude
1,298.572 km
Perigee altitude
1,019.799 km
Semi-major axis
7,537.322 km
Eccentricity
0.01849
Inclination
89.0606°
RAAN
100.6189°
Arg. of periapsis
242.1522°
True anomaly
145.31926°
Mean anomaly
144.0996°
Eccentric anomaly
144.7117°
Mean motion
3.31679 °/min
Orbital period
108.54 mins
BSTAR
0.00068158
Loading maneuver chart data...
Computing Atmospheric mass density...
Loading historical data...
Loading historical data...
Loading historical data...
Loading historical data...
Loading historical data...
Loading historical data...
Loading historical data...

Documentation

Showing up to 5 results
|